Location: Hawaiian Village Mobile Home Park
(32.8359°N, 116.9792°W)
Time: 10:37:32
(UTC+00:00)

CZ-3 R/B - Pass Details

Date: 01 August 2021
Orbit: 398 x 10205 km, 28.3° (Epoch: 15 September)

Event Time Altitude Azimuth Distance (km) Brightness Sun altitude
Exits shadow 12:09:38 10° 251° (WSW) 10,270 6.1 -10.7°
Reaches altitude 10° 12:10:08 10° 251° (WSW) 10,156 6.0 -10.6°
Maximum altitude 12:39:14 67° 176° (S) 2,240 3.3 -5.2°
Drops below altitude 10° 12:46:27 10° 94° (E) 2,954 5.2 -3.8°
Sets 12:48:09 0° 91° (E) 3,534 5.8 -3.5°
